Location: Launay
(47.2429°N, 1.5727°E)
Time: 18:15:35
(UTC+00:00)

Cosmos 1536 - Pass Details

Date: 19 May 2025
Orbit: 494 x 518 km, 82.5° (Epoch: 22 June)

Event Time Altitude Azimuth Distance (km) Brightness Sun altitude
Rises 21:31:51 0° 356° (N) 2,641 7.4 -15.9°
Reaches altitude 10° 21:34:05 10° 4° (N) 1,745 6.2 -16.1°
Maximum altitude 21:37:44 42° 76° (ENE) 736 3.3 -16.5°
Enters shadow 21:38:50 33° 119° (ESE) 875 3.4 -16.6°
